Location: Bats
(43.6587°N, 0.4584°W)
Time: 20:42:21
(UTC+00:00)

Resurs 01 Rocket - Pass Details

Date: 12 January 2026
Orbit: 628 x 635 km, 97.7° (Epoch: 13 February)

Event Time Altitude Azimuth Distance (km) Brightness Sun altitude
Rises 18:46:02 0° 158° (SSE) 2,902 4.9 -21.0°
Enters shadow 18:47:19 - 156° (SSE) 2,371 4.4 -21.2°
Exits shadow 18:53:19 52° 24° (NNE) 780 1.8 -22.3°
Drops below altitude 10° 18:56:52 10° 354° (N) 2,014 4.2 -22.9°
Sets 18:59:05 0° 351° (N) 2,926 5.0 -23.3°
